[[{"header":{"parameterUnit":"m.s-1","parameterCategory":1,"la1":30.2991,"la2":30.254,"lo1":-89.0895,"lo2":-89.0444,"dy":0.0017,"dx":0.0017,"nx":28,"ny":28,"refTime":"2023-04-17T21:00:00:Z","depth":0,"parameterNumber":2,"parameterNumberName":"U-component_of_WINDS"},"data":[0,0,0,0,0,0,0,0,0,0,0,0,0,0,0,0,0,0,0,0,0,0,0,0,0,0,0,0,0,0,0,0,0,0,0,0,0,0,0,0,0,0,0,0,0,0,0,0,0,0,0,0,0,0,0,0,0,0,-0.1733,-0.1732,0,-0.1625,-0.1624,-0.1622,-0.1567,-0.1567,-0.1567,-0.1567,-0.1456,-0.1453,-0.145,0,0,0,0,0,0,0,0,0,0,0,0,0,-0.1892,-0.1889,-0.1733,-0.1732,-0.173,-0.1625,-0.1624,-0.1622,-0.1567,-0.1567,-0.1567,-0.1567,-0.1457,-0.1454,-0.145,0,0,0,0,0,0,0,0,0,0,0,0,0,-0.1807,-0.1888,-0.1733,-0.169,-0.1685,-0.1625,-0.1624,-0.1622,-0.1567,-0.1567,-0.1567,-0.1567,-0.1458,-0.1454,-0.145,-0.1425,0,0,-0.1436,-0.1434,0,0,0,0,0,0,0,0,-0.1812,-0.1801,-0.1698,-0.1693,-0.1687,-0.1609,-0.1639,-0.1556,-0.1567,-0.1612,-0.1567,-0.1567,-0.1507,-0.1499,-0.1479,-0.1419,-0.1415,-0.1436,-0.1433,-0.1431,-0.143,0,0,0,0,0,0,0,-0.1818,-0.1806,-0.169,-0.1696,-0.169,-0.1676,-0.1664,-0.1623,-0.1561,-0.1608,-0.1604,-0.1592,-0.1504,-0.1483,-0.1476,-0.1413,-0.1436,-0.1432,-0.143,-0.1428,-0.1329,-0.1328,0,0,0,0,0,0,-0.1831,-0.1811,-0.1694,-0.1687,-0.1751,-0.1673,-0.166,-0.1634,-0.1562,-0.155,-0.1592,-0.1589,-0.149,-0.1481,-0.1472,-0.1438,-0.1431,-0.1427,-0.1425,-0.1329,-0.1329,-0.1328,0,0,0,0,0,0,-0.1834,-0.1821,-0.1698,-0.1748,-0.1731,-0.1671,-0.1643,-0.1632,-0.1611,-0.1549,-0.1538,-0.1581,-0.149,-0.1478,-0.1437,-0.1433,-0.1425,-0.1422,-0.1329,-0.1329,-0.1328,-0.137,0,0,0,0,0,0,-0.1839,-0.1823,-0.1812,-0.1748,-0.1729,-0.1665,-0.1642,-0.163,-0.1604,-0.16,-0.1537,-0.1526,-0.1489,-0.1444,-0.1433,-0.1427,-0.1418,-0.1329,-0.1329,-0.1329,-0.1369,-0.1372,-0.1374,0,0,0,0,0,-0.1845,-0.1828,-0.1812,-0.1798,-0.1715,-0.1665,-0.1654,-0.1612,-0.1604,-0.1593,-0.1553,-0.1528,-0.1436,-0.144,-0.1427,-0.142,-0.1329,-0.1329,-0.1329,-0.1368,-0.1371,-0.1374,0,0,0,0,0,0,-0.1893,-0.1819,-0.18,-0.1762,-0.172,-0.1656,-0.1641,-0.1616,-0.1576,-0.1574,-0.1523,-0.1509,-0.1473,-0.1442,-0.1449,-0.1392,-0.138,-0.1377,-0.1414,-0.1416,-0.1419,-0.1427,-0.1415,0,0,0,0,0,-0.19,-0.1865,-0.1802,-0.1775,-0.1755,-0.1702,-0.1678,-0.1649,-0.1604,-0.1586,-0.1544,-0.1501,-0.1462,-0.1437,-0.1398,-0.1364,-0.135,-0.1353,-0.1356,-0.1358,-0.1356,-0.1337,-0.1337,-0.1328,-0.1328,-0.1328,0,0,-0.1912,-0.1867,-0.1849,-0.1783,-0.1747,-0.1714,-0.1687,-0.1652,-0.1626,-0.1581,-0.154,-0.1507,-0.1456,-0.1419,-0.14,-0.1392,-0.1356,-0.1358,-0.136,-0.1357,-0.1337,-0.1338,-0.1338,-0.1328,-0.1328,-0.1328,0,0,-0.1917,-0.188,-0.1853,-0.1818,-0.1764,-0.1729,-0.1723,-0.1662,-0.1639,-0.1597,-0.1562,-0.1531,-0.1465,-0.143,-0.1404,-0.1397,-0.1372,-0.1386,-0.1399,-0.138,-0.1381,-0.1381,-0.1379,-0.1379,-0.1384,-0.1384,-0.1384,0,-0.1939,-0.1887,-0.1842,-0.1809,-0.1782,-0.1739,-0.1712,-0.168,-0.1616,-0.1598,-0.159,-0.1507,-0.147,-0.1424,-0.1422,-0.1402,-0.1394,-0.1393,-0.1384,-0.1384,-0.1384,-0.1382,-0.1381,-0.1386,-0.1386,-0.1386,-0.1386,0,-0.1917,-0.1881,-0.1865,-0.1806,-0.1776,-0.1746,-0.1697,-0.1673,-0.1647,-0.1613,-0.1571,-0.1525,-0.1476,-0.1463,-0.1437,-0.1414,-0.1411,-0.1394,-0.138,-0.1388,-0.1384,-0.1383,-0.1389,-0.1388,-0.1388,-0.1387,0,0,-0.1949,-0.1865,-0.186,-0.1833,-0.1771,-0.1742,-0.1711,-0.1663,-0.1644,-0.1601,-0.1574,-0.152,-0.1504,-0.1475,-0.1444,-0.1428,-0.1426,-0.1413,-0.1411,-0.1418,-0.1398,-0.1411,-0.1411,-0.1409,-0.1409,-0.1409,-0.1403,0,-0.1945,-0.1887,-0.1846,-0.1803,-0.177,-0.1729,-0.1702,-0.1661,-0.1629,-0.1596,-0.156,-0.1523,-0.1505,-0.1487,-0.1469,-0.143,-0.1422,-0.143,-0.1383,-0.1382,-0.1398,-0.1409,-0.1422,-0.1418,-0.1401,-0.1401,-0.14,0,-0.1933,-0.1893,-0.1847,-0.1789,-0.1774,-0.175,-0.1703,-0.1672,-0.1626,-0.1603,-0.1571,-0.154,-0.1505,-0.1494,-0.1446,-0.1453,-0.1432,-0.141,-0.1409,-0.1403,-0.1392,-0.1403,-0.1416,-0.1416,-0.1398,-0.1398,-0.1398,0,-0.1962,-0.1896,-0.186,-0.1838,-0.1769,-0.1754,-0.1725,-0.1678,-0.1652,-0.1611,-0.1594,-0.155,-0.1526,-0.1493,-0.1451,-0.1447,-0.1407,-0.1393,-0.1388,-0.1389,-0.1381,-0.1382,-0.1391,-0.1367,-0.1367,-0.1367,-0.1367,0,-0.1963,-0.1936,-0.1872,-0.185,-0.1819,-0.1773,-0.1744,-0.1711,-0.167,-0.1641,-0.1604,-0.1578,-0.1524,-0.1491,-0.1459,-0.1424,-0.1413,-0.1394,-0.1386,-0.1398,-0.14,-0.1383,-0.1382,-0.1367,-0.1367,-0.1367,-0.1367,0,-0.1989,-0.1945,-0.1903,-0.1842,-0.1826,-0.1807,-0.1754,-0.1732,-0.1698,-0.1662,-0.1651,-0.1597,-0.1557,-0.1512,-0.1457,-0.1435,-0.1402,-0.139,-0.1418,-0.1413,-0.1411,-0.1412,-0.1409,-0.1406,-0.1385,-0.1385,-0.1385,0,-0.1992,-0.1971,-0.1908,-0.1886,-0.1858,-0.1823,-0.1797,-0.1751,-0.1725,-0.1671,-0.1655,-0.1611,-0.1575,-0.1512,-0.1468,-0.1426,-0.1413,-0.1415,-0.1406,-0.1419,-0.1413,-0.1415,-0.1413,-0.1417,-0.1418,-0.1418,-0.1418,0,-0.2003,-0.1983,-0.1946,-0.1902,-0.1872,-0.1835,-0.1796,-0.178,-0.1727,-0.17,-0.1658,-0.163,-0.1573,-0.1531,-0.1484,-0.1454,-0.1427,-0.1421,-0.1418,-0.143,-0.1447,-0.1438,-0.1425,-0.1422,-0.1421,-0.1421,-0.1421,-0.1421,-0.2018,-0.1998,-0.195,-0.1911,-0.1877,-0.1842,-0.1818,-0.1781,-0.1746,-0.1697,-0.1672,-0.1631,-0.1585,-0.1519,-0.149,-0.1457,-0.1448,-0.1444,-0.1442,-0.1442,-0.1445,-0.1453,-0.1448,-0.1448,-0.1448,-0.1448,-0.1448,0,-0.2027,-0.1995,-0.1959,-0.1907,-0.1876,-0.1854,-0.1811,-0.1786,-0.1751,-0.1711,-0.1675,-0.1628,-0.1587,-0.1541,-0.1497,-0.148,-0.1467,-0.147,-0.1471,-0.1464,-0.1455,-0.1463,-0.1481,-0.1481,-0.1481,-0.1481,-0.1481,-0.1481,-0.2028,-0.1993,-0.1967,-0.1914,-0.1882,-0.1842,-0.1819,-0.1787,-0.1754,-0.1703,-0.1669,-0.1639,-0.1597,-0.155,-0.1511,-0.1499,-0.1485,-0.1492,-0.1476,-0.1468,-0.1465,-0.1462,-0.1469,-0.1489,-0.1489,-0.1487,-0.1487,-0.1487]},{"header":{"parameterUnit":"m.s-1","parameterCategory":1,"la1":30.2991,"la2":30.254,"lo1":-89.0895,"lo2":-89.0444,"dy":0.0017,"dx":0.0017,"nx":28,"ny":28,"refTime":"2023-04-17T21:00:00:Z","depth":0,"parameterNumber":3,"parameterNumberName":"V-component_of_WINDS"},"data":[0,0,0,0,0,0,0,0,0,0,0,0,0,0,0,0,0,0,0,0,0,0,0,0,0,0,0,0,0,0,0,0,0,0,0,0,0,0,0,0,0,0,0,0,0,0,0,0,0,0,0,0,0,0,0,0,0,0,2.5261,2.5261,0,2.5255,2.5255,2.5255,2.5233,2.5232,2.5232,2.5231,2.5224,2.5224,2.5225,0,0,0,0,0,0,0,0,0,0,0,0,0,2.5253,2.5253,2.5261,2.5261,2.5261,2.5255,2.5255,2.5255,2.5233,2.5232,2.5232,2.5231,2.5224,2.5224,2.5225,0,0,0,0,0,0,0,0,0,0,0,0,0,2.5253,2.5253,2.5261,2.525,2.5248,2.5255,2.5255,2.5255,2.5233,2.5232,2.5232,2.5231,2.5224,2.5224,2.5225,2.5242,0,0,2.5226,2.5226,0,0,0,0,0,0,0,0,2.5253,2.5253,2.5251,2.525,2.5249,2.5244,2.5249,2.525,2.5233,2.5239,2.5231,2.523,2.5231,2.5231,2.5231,2.5242,2.5241,2.5226,2.5226,2.5226,2.5227,0,0,0,0,0,0,0,2.5253,2.5253,2.5259,2.5251,2.525,2.5244,2.5243,2.5249,2.5239,2.5238,2.5237,2.5236,2.5231,2.5231,2.5231,2.5241,2.5226,2.5226,2.5227,2.5227,2.5264,2.5264,0,0,0,0,0,0,2.5255,2.5253,2.5259,2.5259,2.5249,2.5245,2.5244,2.5246,2.5239,2.5237,2.5237,2.5235,2.5231,2.5231,2.5231,2.5249,2.5226,2.5227,2.5227,2.5263,2.5264,2.5265,0,0,0,0,0,0,2.5255,2.5255,2.5259,2.5255,2.5256,2.5246,2.5249,2.5247,2.5247,2.5238,2.5236,2.5239,2.523,2.523,2.5239,2.5249,2.5227,2.5227,2.5262,2.5263,2.5264,2.5288,0,0,0,0,0,0,2.5254,2.5255,2.5262,2.5256,2.5256,2.5268,2.5249,2.5247,2.5248,2.5246,2.524,2.5238,2.523,2.5239,2.5239,2.5249,2.5228,2.5261,2.5263,2.5264,2.5286,2.5289,2.5292,0,0,0,0,0,2.5254,2.5269,2.5263,2.5264,2.5264,2.5269,2.5269,2.5259,2.5249,2.5255,2.5249,2.5238,2.5248,2.524,2.524,2.525,2.526,2.5262,2.5264,2.5284,2.5289,2.5292,0,0,0,0,0,0,2.5278,2.5268,2.5261,2.5275,2.5273,2.5265,2.5273,2.5264,2.5264,2.5262,2.5249,2.5248,2.5259,2.5255,2.5247,2.5266,2.5252,2.5254,2.5268,2.5272,2.5275,2.5275,2.5228,0,0,0,0,0,2.5284,2.5289,2.5281,2.5293,2.5293,2.5283,2.5285,2.5277,2.5274,2.5273,2.5268,2.5266,2.5268,2.527,2.5271,2.5285,2.5283,2.5292,2.5296,2.5298,2.53,2.5306,2.5309,2.527,2.527,2.527,0,0,2.5298,2.5294,2.5298,2.5298,2.5295,2.53,2.5283,2.5289,2.5291,2.5274,2.5282,2.5278,2.5274,2.5286,2.529,2.5283,2.531,2.53,2.5303,2.5303,2.5308,2.5312,2.5315,2.5271,2.5271,2.5271,0,0,2.5326,2.5323,2.5333,2.5331,2.5327,2.532,2.5323,2.5316,2.5313,2.5321,2.5307,2.5311,2.5315,2.5313,2.5312,2.5337,2.5327,2.5338,2.5355,2.5361,2.5364,2.5366,2.5374,2.5377,2.534,2.534,2.534,0,2.5343,2.535,2.5339,2.5346,2.5346,2.533,2.5339,2.5338,2.5335,2.5335,2.5327,2.5331,2.5328,2.5338,2.5344,2.5344,2.5345,2.5339,2.5364,2.5367,2.5369,2.5376,2.538,2.5341,2.5341,2.5341,2.5341,0,2.5371,2.5376,2.5384,2.5382,2.5383,2.5391,2.538,2.5382,2.5374,2.5368,2.5375,2.5371,2.537,2.5372,2.5365,2.5381,2.5376,2.5367,2.5352,2.5374,2.5381,2.5384,2.5343,2.5343,2.5342,2.5342,0,0,2.5414,2.5404,2.5407,2.5405,2.54,2.5403,2.541,2.5409,2.5411,2.5409,2.5414,2.5417,2.5408,2.5407,2.5399,2.5404,2.5423,2.5394,2.5393,2.5399,2.5439,2.5446,2.5449,2.5416,2.5417,2.5417,2.5439,0,2.5439,2.545,2.544,2.5453,2.5456,2.5441,2.5446,2.5443,2.5438,2.5439,2.5433,2.5435,2.5423,2.5422,2.5427,2.542,2.5431,2.5418,2.542,2.542,2.542,2.5453,2.546,2.5481,2.5442,2.5442,2.5442,0,2.547,2.5469,2.5482,2.5475,2.5476,2.5481,2.5479,2.5482,2.5477,2.5473,2.5471,2.5461,2.5466,2.5453,2.5459,2.5451,2.5451,2.5447,2.5448,2.5447,2.5432,2.5452,2.5488,2.549,2.5447,2.5446,2.5446,0,2.5498,2.5501,2.5508,2.5507,2.5499,2.5503,2.5499,2.5494,2.5494,2.5493,2.5492,2.5492,2.5491,2.549,2.548,2.5471,2.5487,2.5473,2.5482,2.5482,2.5486,2.5486,2.5521,2.5487,2.5487,2.5487,2.5487,0,2.5527,2.5535,2.5521,2.5526,2.5534,2.5522,2.553,2.5525,2.5521,2.5524,2.5511,2.5514,2.55,2.5501,2.5493,2.5499,2.5499,2.5495,2.5492,2.5495,2.5496,2.5495,2.5493,2.5488,2.5488,2.5488,2.5487,0,2.556,2.5551,2.5558,2.5549,2.5547,2.5554,2.5546,2.5549,2.5542,2.5546,2.5546,2.5535,2.5536,2.5526,2.5524,2.5519,2.5528,2.5523,2.5529,2.5527,2.5537,2.5536,2.5572,2.5576,2.5541,2.5541,2.5541,0,2.5579,2.5585,2.5576,2.5577,2.5574,2.5576,2.5576,2.5564,2.5564,2.5559,2.5563,2.5563,2.5562,2.5563,2.5555,2.5553,2.5548,2.5561,2.5548,2.555,2.5547,2.5546,2.5546,2.5563,2.5564,2.5564,2.5564,0,2.5612,2.5607,2.5608,2.5606,2.5606,2.5604,2.5602,2.5603,2.559,2.5591,2.5591,2.559,2.5589,2.5588,2.5585,2.558,2.557,2.5569,2.5571,2.5573,2.5576,2.5574,2.5536,2.5568,2.5567,2.5567,2.5567,2.5567,2.5638,2.5642,2.5636,2.5637,2.5634,2.5631,2.5634,2.5627,2.5627,2.5625,2.5618,2.5619,2.5613,2.5608,2.5604,2.5605,2.5598,2.5601,2.5602,2.5603,2.5604,2.5577,2.5604,2.5604,2.5604,2.5604,2.5604,0,2.567,2.5666,2.5666,2.5662,2.5663,2.5653,2.5649,2.565,2.5651,2.5647,2.5646,2.5646,2.5645,2.5636,2.5634,2.5635,2.563,2.5635,2.5635,2.5633,2.5611,2.5609,2.5639,2.5639,2.5639,2.5639,2.5639,2.5639,2.5687,2.5693,2.5687,2.569,2.5686,2.5687,2.5685,2.5683,2.5679,2.5679,2.5678,2.5673,2.5666,2.5663,2.5662,2.5659,2.5658,2.5664,2.566,2.5639,2.5635,2.5632,2.563,2.5665,2.5665,2.5683,2.5683,2.5683]}]]